Погода в Городище

Россия / Пермский край     59°40′07″N   56°51′33″E
темп.,
°C
ветер,
м/с
пор.,
м/с
влажн.,
%
обл.,
%
осадки,
мм/ч
давл.,
гПа
погр.,
м
6 марта, сб
сб623:00−16з379668 0.2 1000148
02:00−18зюз239793 0.0 100265
05:00−20зюз239880 0.0 100472
08:00−18зюз259896 0.1 1005228
11:00−15з259298 0.3 1005353
14:00−12з3485100 0.1 1006723
17:00−12з3590100 0.3 1007680
20:00−14зюз249798 0.2 1008149
7 марта, вс
вс723:00−15зюз239797 0.3 100979
02:00−18юз229880 0.1 100826
05:00−18юз229890 0.1 100980
08:00−18юз229895 0.1 100968
11:00−16ююз239195 0.2 1009340
14:00−13ююз2485100 0.1 1008724
17:00−13ююз2385100 0.2 1007601
20:00−17ю2297100 0.1 100720
8 марта, пн
пн823:00−19ююв129994 0.1 100720
02:00−20юв229984 0.0 100624
05:00−20юв239991 0.1 100666
08:00−21вюв259898 0.0 1004120
11:00−16вюв369098 0.0 1002268
14:00−11вюв3790100 0.1 1000542
17:00−9юв3693100 0.6 998618
20:00−11в5992100 0.9 998523
9 марта, вт
вт923:00−13всв4993100 1.2 999386
02:00−14ссв3596100 0.2 999161
05:00−15ссз249799 0.4 999135
08:00−17ссз2498100 0.1 1001104
11:00−15ссз3593100 0.1 1002330
14:00−13ссз3590100 0.1 1004480
17:00−14ссз3690100 0.1 1005509
20:00−18ссз4895100 0.0 1008348
10 марта, ср
ср1023:00−23с389598 0.0 1010256
02:00−25ссз369699 0.0 1011238
05:00−26ссз379599 0.0 1012257
08:00−28ссз3795100 0.0 1013253
11:00−26ссз369196 0.0 1013316
14:00−21ссз468722 0.0 1013429
17:00−19ссз368611 0.0 1012526
20:00−24сз239531 0.0 101420